Location: Bogis-Bossey
(46.3500°N, 6.1667°E)
Time: 17:05:26
(UTC+00:00)

ATLAS 5 CENTAUR R/B - Pass Details

Date: 17 August 2022
Orbit: 467 x 1182 km, 63.3° (Epoch: 25 September)

Event Time Altitude Azimuth Distance (km) Brightness Sun altitude
Rises 20:08:45 0° 312° (NW) 3,244 7.2 -14.0°
Reaches altitude 10° 20:11:13 10° 302° (WNW) 2,427 6.0 -14.4°
Maximum altitude 20:16:09 31° 242° (WSW) 1,576 3.8 -15.0°
Drops below altitude 10° 20:21:51 10° 184° (S) 2,835 4.6 -15.8°
Enters shadow 20:22:53 - 180° (S) 3,174 4.8 -15.9°
